TimeCDT,TemperatureF,Dew PointF,Humidity,Sea Level PressureIn,VisibilityMPH,Wind Direction,Wind SpeedMPH,Gust SpeedMPH,PrecipitationIn,Events,Conditions,WindDirDegrees,DateUTC
12:53 AM,73.0,71.1,93,29.86,6.0,Calm,Calm,-,N/A,,Mostly Cloudy,0,2013-07-22 05:53:00
1:26 AM,73.4,71.6,94,29.91,2.0,North,9.2,-,0.00,Rain,Light Rain,350,2013-07-22 06:26:00
1:33 AM,73.4,71.6,94,29.91,1.0,NW,5.8,-,0.00,Rain,Light Rain,320,2013-07-22 06:33:00
1:39 AM,73.4,71.6,94,29.91,3.0,North,5.8,-,0.01,Rain,Light Rain,360,2013-07-22 06:39:00
1:53 AM,73.0,72.0,96,29.87,8.0,WNW,3.5,-,0.01,Thunderstorm,Mostly Cloudy,290,2013-07-22 06:53:00
2:09 AM,73.4,71.6,94,29.91,8.0,Calm,Calm,-,N/A,,Partly Cloudy,0,2013-07-22 07:09:00
2:23 AM,73.4,71.6,94,29.91,8.0,NNW,3.5,-,N/A,Thunderstorm,Mostly Cloudy,330,2013-07-22 07:23:00
2:38 AM,73.4,71.6,94,29.91,8.0,WNW,3.5,-,N/A,,Scattered Clouds,300,2013-07-22 07:38:00
2:53 AM,73.9,71.1,91,29.87,9.0,West,6.9,-,N/A,,Partly Cloudy,280,2013-07-22 07:53:00
3:53 AM,70.0,64.0,81,29.84,10.0,West,4.6,-,N/A,,Clear,260,2013-07-22 08:53:00
4:53 AM,68.0,64.0,87,29.86,10.0,NNE,4.6,-,N/A,,Clear,20,2013-07-22 09:53:00
5:40 AM,69.8,62.6,78,29.94,10.0,NW,9.2,-,N/A,Thunderstorm,Scattered Clouds,320,2013-07-22 10:40:00
5:53 AM,69.1,63.0,81,29.91,9.0,WNW,8.1,-,N/A,Thunderstorm,Mostly Cloudy,290,2013-07-22 10:53:00
6:15 AM,66.2,64.4,94,29.95,10.0,NW,10.4,-,0.01,Rain-Thunderstorm,Light Thunderstorms and Rain,320,2013-07-22 11:15:00
6:32 AM,66.2,64.4,94,29.98,1.8,West,5.8,-,0.19,Rain-Thunderstorm,Heavy Thunderstorms and Rain,280,2013-07-22 11:32:00
6:47 AM,66.2,64.4,94,29.98,3.0,WSW,9.2,23.0,0.36,Rain-Thunderstorm,Thunderstorms and Rain,250,2013-07-22 11:47:00
6:53 AM,66.0,64.9,96,29.93,8.0,SW,6.9,23.0,0.37,Rain-Thunderstorm,Light Rain,230,2013-07-22 11:53:00
7:15 AM,66.2,64.4,94,29.97,10.0,SSW,9.2,-,0.00,Rain-Thunderstorm,Light Rain,210,2013-07-22 12:15:00
7:49 AM,66.2,66.2,100,30.01,10.0,North,10.4,-,0.01,Rain,Light Rain,350,2013-07-22 12:49:00
7:53 AM,66.9,66.0,97,29.99,10.0,WNW,15.0,20.7,0.01,Rain,Light Rain,300,2013-07-22 12:53:00
8:07 AM,66.2,66.2,100,30.00,6.0,WSW,10.4,-,0.02,Rain-Thunderstorm,Light Rain,250,2013-07-22 13:07:00
8:22 AM,66.2,64.4,94,29.97,10.0,SSW,5.8,-,0.02,Rain,Light Rain,200,2013-07-22 13:22:00
8:53 AM,66.9,64.0,90,29.94,10.0,West,3.5,-,0.04,,Overcast,260,2013-07-22 13:53:00
9:06 AM,68.0,62.6,83,29.98,2.0,Calm,Calm,-,0.05,Rain-Thunderstorm,Heavy Rain,0,2013-07-22 14:06:00
9:13 AM,68.0,62.6,83,29.98,1.5,NNE,3.5,-,0.08,Rain-Thunderstorm,Light Rain,30,2013-07-22 14:13:00
9:16 AM,68.0,62.6,83,29.98,3.0,Calm,Calm,-,0.08,Rain-Thunderstorm,Light Rain,0,2013-07-22 14:16:00
9:26 AM,66.2,64.4,94,29.97,4.0,SSE,4.6,-,0.11,Rain,Heavy Rain,150,2013-07-22 14:26:00
9:40 AM,69.8,64.4,83,29.95,10.0,South,4.6,-,0.11,Thunderstorm,Mostly Cloudy,180,2013-07-22 14:40:00
9:53 AM,70.0,64.0,81,29.91,10.0,Calm,Calm,-,0.11,,Mostly Cloudy,0,2013-07-22 14:53:00
10:53 AM,75.0,66.9,76,29.92,10.0,ESE,3.5,-,N/A,,Mostly Cloudy,110,2013-07-22 15:53:00
11:23 AM,75.2,69.8,83,29.97,10.0,East,3.5,-,N/A,Thunderstorm,Mostly Cloudy,100,2013-07-22 16:23:00
11:32 AM,73.4,68.0,83,29.97,10.0,East,5.8,-,N/A,Thunderstorm,Mostly Cloudy,100,2013-07-22 16:32:00
11:53 AM,73.9,69.1,85,29.94,10.0,Calm,Calm,-,0.00,Thunderstorm,Thunderstorm,0,2013-07-22 16:53:00
12:21 PM,73.4,69.8,88,29.99,10.0,WSW,4.6,-,N/A,,Clear,240,2013-07-22 17:21:00
12:53 PM,73.9,66.9,79,29.91,10.0,SSW,8.1,19.6,0.01,Rain,Light Rain,200,2013-07-22 17:53:00
1:53 PM,75.0,64.9,71,29.88,10.0,South,4.6,-,0.00,,Mostly Cloudy,190,2013-07-22 18:53:00
2:53 PM,75.9,66.9,74,29.92,10.0,WNW,3.5,-,0.00,,Overcast,300,2013-07-22 19:53:00
3:53 PM,80.1,66.0,62,29.91,10.0,Calm,Calm,-,N/A,,Clear,0,2013-07-22 20:53:00
4:53 PM,82.9,69.1,63,29.88,10.0,Variable,3.5,-,N/A,,Clear,0,2013-07-22 21:53:00
5:53 PM,82.9,70.0,65,29.86,10.0,South,8.1,-,N/A,,Clear,180,2013-07-22 22:53:00
6:53 PM,81.0,72.0,74,29.85,10.0,South,5.8,-,N/A,,Mostly Cloudy,170,2013-07-22 23:53:00
7:53 PM,81.0,70.0,69,29.87,10.0,Calm,Calm,-,N/A,,Partly Cloudy,0,2013-07-23 00:53:00
8:53 PM,78.1,70.0,76,29.86,10.0,South,3.5,-,N/A,,Clear,170,2013-07-23 01:53:00
9:53 PM,73.9,70.0,87,29.88,10.0,SSE,4.6,-,N/A,,Clear,160,2013-07-23 02:53:00
10:53 PM,73.9,69.1,85,29.87,10.0,SE,6.9,-,N/A,,Clear,130,2013-07-23 03:53:00
11:53 PM,73.9,69.1,85,29.89,10.0,Calm,Calm,-,N/A,,Clear,0,2013-07-23 04:53:00